Regional Weather Roundup
Issued by NWS

Home | Current Version | Previous Version | Graphics & Text | Print | Product List | Glossary On
Versions: 1 2 3 4 5 6 7 8 9 10 11 12 13 14 15 16 17 18 19 20 21 22 23 24 25 26 27 28 29 30 31 32 33 34 35 36 37 38 39 40 41 42 43 44 45 46 47 48 49 50
000
ASUS45 KTFX 211604
RWRMT
MONTANA HOURLY WEATHER ROUNDUP
NATIONAL WEATHER SERVICE GREAT FALLS MT
904 AM MST FRI NOV 21 2014

NOTE: "FAIR" INDICATES FEW OR NO CLOUDS BELOW 12000 FEET WITH NO
SIGNIFICANT WEATHER AND/OR OBSTRUCTIONS TO VISIBILITY.

* THESE STATIONS ARE NOT UNDER NWS QUALITY CONTROL. THEY DO NOT
   REPORT WEATHER SUCH AS PRECIPITATION OR FOG.

MTZ001>007-043-211700-
WEST OF THE DIVIDE
CITY           SKY/WX    TMP DP  RH WIND       PRES   REMARKS
KALISPELL      FOG       28  28 100 CALM      29.89R VSB 2 1/2
MISSOULA       CLOUDY    28  27  96 CALM      29.95R
BUTTE          PTCLDY    23  18  81 VRB3      29.91R
MULLAN PASS    FOG       32  28  85 SW7       29.85S VSB M1/4 WCI  25
* ESSEX        N/A       32  30  92 N/A        N/A
* LINCOLN      N/A       36  26  67 S5G10      N/A   WCI  32
* LOOKOUT PASS N/A       35  33  92 NE2        N/A
* POLSON       N/A       33  33 100 SE2        N/A
* RONAN APT    PTSUNNY   28  27  96 N/A        N/A
* SEELEY LAKE  N/A       30  28  92 E2         N/A
* THOMP F APT  PTCLDY    26  23  88 NE3        N/A
* YAAK HILL    N/A       29  27  92 N/A        N/A
$$

MTZ008-052>055-211700-
SOUTHWEST MONTANA
CITY           SKY/WX    TMP DP  RH WIND       PRES   REMARKS
BOZEMAN        CLOUDY    25  19  78 CALM      29.93R
DILLON         PTSUNNY   27  19  72 SW9       29.94S WCI  18
* W YELLOWSTON PTCLDY    29  26  89 SW1G10     N/A
* ENNIS APT    CLOUDY    28  21  75 SE9        N/A   WCI  19
* THREE FORKS  CLOUDY    21  21 100 N/A        N/A
* BOULDER HILL N/A       27  18  69 S11        N/A   WCI  17
* MONIDA PASS  N/A       21  21 100 E8         N/A   WCI  11
* RAYNOLDS PAS N/A       24   6  46 SE7        N/A   WCI  16
* WHITEHALL    N/A       31  21  66 NE2G9      N/A
* WISE RIVER   N/A       25  20  81 E2         N/A
$$

MTZ009>010-012-014-046-048-049-054-211700-
EAST SLOPES AND CENTRAL MONTANA
CITY           SKY/WX    TMP DP  RH WIND       PRES   REMARKS
CUT BANK       CLOUDY    39  28  65 W18       29.73S WCI  30
GREAT FALLS    PTCLDY    43  27  53 SW20G28   29.78R
HELENA         CLOUDY    34  27  76 CALM      29.89R
MALMSTROM AFB  PTCLDY    41  30  65 SW14      29.79S
* DEARBORN     N/A       45  25  45 S9G16      N/A
* EAST GLACIER N/A       35  30  82 W24G32     N/A   WCI  23
* MONARCH      N/A       36  19  50 SW21G26    N/A   WCI  25
* PENDROY      N/A       36  24  62 N/A        N/A
* ROGERS PASS  N/A       34  25  70 SE11G21    N/A   WCI  26
* SAINT MARY   N/A       37  30  76 SW8G23     N/A   WCI  31
* SWEET GRASS  N/A       39  29  67 SW26G35    N/A   WCI  28
$$

MTZ011-013-016-021-035-040-045-047-050-051-211700-
NORTH CENTRAL MONTANA
CITY           SKY/WX    TMP DP  RH WIND       PRES   REMARKS
HAVRE          SUNNY     36  28  73 SW20      29.70R WCI  25
LEWISTOWN      PTCLDY    39  25  57 SW17G25   29.78R WCI  30
* N BAR RANCH  SUNNY     41  21  45 NW15      29.79S
* CHESTER      N/A       37  27  67 SW13G21    N/A   WCI  29
* DENTON       N/A       40  25  55 W12G17     N/A   WCI  33
* GEYSER       N/A       42  22  45 SW24G30    N/A
* JUDITH GAP   N/A       34  20  57 S4G9       N/A
* LOMA         N/A       43  29  58 SW12G23    N/A
$$

MTZ017>020-022>027-061-062-211700-
NORTHEAST MONTANA
CITY           SKY/WX    TMP DP  RH WIND       PRES   REMARKS
GLASGOW        SUNNY     34  25  70 W17G26    29.68R WCI  23
GLENDIVE       SUNNY     28  21  75 SE10      29.75S WCI  19
JORDAN         SUNNY     32  23  69 W6        29.74F WCI  26
SIDNEY         SUNNY     28  21  75 S13       29.72S WCI  17
WOLF POINT     PTCLDY    25  21  85 SW8       29.69S WCI  16
* BEAVER HILL  N/A       34  24  67 SW20G26    N/A   WCI  23
* CIRCLE       N/A       33  26  75 SW6        N/A   WCI  27
* NAVAJO       N/A       35  27  73 W23        N/A   WCI  23
* SACO         N/A       37  27  67 SW12       N/A   WCI  29
$$

MTZ028>042-056>058-211700-
SOUTHCENTRAL AND SOUTHEAST MONTANA
CITY           SKY/WX    TMP DP  RH WIND       PRES   REMARKS
BAKER          SUNNY     36  25  64 W15       29.79R WCI  27
BILLINGS       PTSUNNY   34  19  54 SW16      29.86R WCI  24
LIVINGSTON     PTSUNNY   43  25  49 W22G31    29.87S
MILES CITY     SUNNY     30  25  82 SW6       29.80R WCI  24
* LAUREL APT   PTCLDY    28  16  61 SW6        N/A   WCI  21
* ALZADA       N/A       33  24  70 W2         N/A
* HYSHAM       N/A       35  19  52 W6         N/A   WCI  30
* LAME DEER    N/A       38  22  53 W6         N/A   WCI  33
* REED POINT   N/A       42  24  49 W11G16     N/A
* ROSCOE HILL  N/A       40  13  33 SE6        N/A   WCI  36
$$

REGIONAL REPORTS...DAKOTAS
CITY           SKY/WX    TMP DP  RH WIND       PRES   REMARKS
WILLISTON      SUNNY     30  23  75 SW8       29.67S WCI  22
DICKINSON      PTCLDY    34  25  70 W17       29.72R WCI  23
BEACH          SUNNY     36  27  70 SW15G20   29.75R WCI  27
CROSBY         SUNNY     34  28  79 SW18      29.58F WCI  23
BISMARCK       PTCLDY    23  18  81 E3        29.76F
GRAND FORKS    PTCLDY    19  12  74 S23       29.77F WCI   2
FARGO          SUNNY     21  14  74 S18G28    29.85F WCI   6
BUFFALO SD     PTCLDY    37  27  67 W8        29.73R WCI  31
RAPID CITY     PTCLDY    45  27  49 CALM      29.84S
$$

REGIONAL REPORTS...WYOMING/IDAHO/WASHINGTON
CITY           SKY/WX    TMP DP  RH WIND       PRES   REMARKS
GILLETTE       PTCLDY    30  21  69 S6        29.85R WCI  24
SHERIDAN       SUNNY     36  25  64 CALM      29.84S
CODY           PTCLDY    43  21  42 W13G21    29.91R
YELLOWSTONE LA PTCLDY    27  23  85 VRB7      30.02R WCI  19
SALMON         CLOUDY    19  16  88 CALM      30.04S
MULLAN PASS    FOG       32  28  85 SW7       29.85S VSB M1/4 WCI  25
SAND POINT     FOG       32  32 100 SW3       29.91S VSB 2 1/2
SPOKANE        FOG       34  32  92 SE8       29.89F WCI  27

$$




USA.gov is the U.S. government's official web portal to all federal, state and local government web resources and services.